• In Uzbekistan
  • List of Countries
  • For 7 days
  • Water Temperature
  • Weather Map
  • Weather Widgets
  • user-avatar
    Login

    Hourly Weather Gaborone

    Today, 27 January, Monday

    Time Temperature Precipitation Wind Pressure Humidity
    00:00 +25°C° 0 mm 1 mps 676 mmHg 61%
    01:00 +24°C° 0 mm 2 mps 676 mmHg 63%
    02:00 +23°C° 0 mm 2 mps 676 mmHg 66%
    03:00 +23°C° 0 mm 2 mps 676 mmHg 64%
    04:00 +21°C° 0 mm 3 mps 676 mmHg 63%
    05:00 +20°C° 0 mm 3 mps 676 mmHg 61%
    06:00 +22°C° 0 mm 3 mps 677 mmHg 52%
    07:00 +24°C° 0 mm 2 mps 677 mmHg 42%
    08:00 +25°C° 0 mm 2 mps 678 mmHg 33%
    09:00 +28°C° 0 mm 2 mps 678 mmHg 28%
    10:00 +31°C° 0 mm 2 mps 678 mmHg 24%
    11:00 +34°C° 0 mm 2 mps 679 mmHg 19%
    12:00 +35°C° 0 mm 2 mps 678 mmHg 17%
    13:00 +36°C° 0 mm 2 mps 678 mmHg 16%
    14:00 +37°C° 0 mm 3 mps 678 mmHg 14%
    15:00 +37°C° 0 mm 3 mps 677 mmHg 14%
    16:00 +37°C° 0 mm 3 mps 677 mmHg 13%
    17:00 +37°C° 0 mm 3 mps 676 mmHg 13%
    18:00 +35°C° 0 mm 3 mps 676 mmHg 16%
    19:00 +31°C° 0 mm 3 mps 676 mmHg 18%
    20:00 +29°C° 0 mm 3 mps 676 mmHg 21%
    21:00 +28°C° 0 mm 3 mps 676 mmHg 21%
    22:00 +28°C° 0 mm 2 mps 676 mmHg 21%
    23:00 +27°C° 0 mm 2 mps 677 mmHg 22%

    Tomorrow, 28 January, Tuesday

    Time Temperature Precipitation Wind Pressure Humidity
    00:00 +26°C° 0 mm 3 mps 676 mmHg 38%
    01:00 +25°C° 0 mm 3 mps 676 mmHg 55%
    02:00 +24°C° 0 mm 3 mps 676 mmHg 72%
    03:00 +24°C° 0 mm 3 mps 676 mmHg 76%
    04:00 +22°C° 0 mm 3 mps 677 mmHg 80%
    05:00 +22°C° 0 mm 3 mps 677 mmHg 84%
    06:00 +22°C° 0 mm 4 mps 677 mmHg 81%
    07:00 +22°C° 0 mm 4 mps 678 mmHg 78%
    08:00 +23°C° 0 mm 5 mps 678 mmHg 75%
    09:00 +25°C° 0 mm 4 mps 678 mmHg 70%
    10:00 +26°C° 0 mm 4 mps 678 mmHg 65%
    11:00 +27°C° 0 mm 3 mps 678 mmHg 60%
    12:00 +29°C° 0 mm 3 mps 678 mmHg 52%
    13:00 +31°C° 0 mm 2 mps 678 mmHg 43%
    14:00 +34°C° 0 mm 2 mps 677 mmHg 35%
    15:00 +35°C° 0 mm 2 mps 677 mmHg 32%
    16:00 +35°C° 0 mm 2 mps 677 mmHg 28%
    17:00 +35°C° 0 mm 1 mps 676 mmHg 25%
    18:00 +34°C° 0 mm 2 mps 676 mmHg 28%
    19:00 +31°C° 0 mm 2 mps 676 mmHg 31%
    20:00 +29°C° 0 mm 2 mps 676 mmHg 35%
    21:00 +28°C° 0 mm 2 mps 676 mmHg 37%
    22:00 +27°C° 0 mm 2 mps 676 mmHg 39%
    23:00 +26°C° 0 mm 2 mps 676 mmHg 41%

    Day after tomorrow, 29 January, Wednesday

    Time Temperature Precipitation Wind Pressure Humidity
    00:00 +26°C° 0 mm 2 mps 676 mmHg 43%
    01:00 +25°C° 0 mm 2 mps 675 mmHg 45%
    02:00 +25°C° 0 mm 2 mps 675 mmHg 47%
    03:00 +24°C° 0 mm 2 mps 675 mmHg 50%
    04:00 +24°C° 0 mm 2 mps 675 mmHg 53%
    05:00 +23°C° 0 mm 1 mps 676 mmHg 57%
    06:00 +25°C° 0 mm 2 mps 676 mmHg 55%
    07:00 +26°C° 0 mm 3 mps 677 mmHg 54%
    08:00 +27°C° 0 mm 3 mps 678 mmHg 53%
    09:00 +29°C° 0 mm 3 mps 678 mmHg 47%
    10:00 +33°C° 0 mm 4 mps 678 mmHg 40%
    11:00 +35°C° 0 mm 4 mps 679 mmHg 34%
    12:00 +36°C° 0 mm 3 mps 678 mmHg 29%
    13:00 +37°C° 0 mm 3 mps 678 mmHg 24%
    14:00 +39°C° 0 mm 2 mps 677 mmHg 20%
    15:00 +38°C° 0 mm 2 mps 677 mmHg 20%
    16:00 +37°C° 0 mm 2 mps 677 mmHg 21%
    17:00 +36°C° 0 mm 1 mps 676 mmHg 22%
    18:00 +35°C° 0 mm 1 mps 676 mmHg 24%
    19:00 +34°C° 0 mm 2 mps 676 mmHg 26%
    20:00 +32°C° 0 mm 2 mps 676 mmHg 28%
    21:00 +31°C° 0 mm 2 mps 676 mmHg 31%
    22:00 +30°C° 0 mm 2 mps 676 mmHg 33%
    23:00 +29°C° 0 mm 2 mps 676 mmHg 35%

    30 January, Thursday

    Time Temperature Precipitation Wind Pressure Humidity
    00:00 +28°C° 0 mm 1 mps 676 mmHg 37%
    01:00 +27°C° 0 mm 1 mps 676 mmHg 39%
    02:00 +27°C° 0 mm 1 mps 676 mmHg 40%
    03:00 +26°C° 0 mm 1 mps 676 mmHg 42%
    04:00 +26°C° 0 mm 1 mps 676 mmHg 43%
    05:00 +25°C° 0 mm 1 mps 676 mmHg 45%
    06:00 +26°C° 0 mm 1 mps 677 mmHg 43%
    07:00 +28°C° 0 mm 2 mps 678 mmHg 40%
    08:00 +29°C° 0 mm 2 mps 679 mmHg 38%
    09:00 +31°C° 0 mm 2 mps 679 mmHg 34%
    10:00 +34°C° 0 mm 3 mps 679 mmHg 30%
    11:00 +36°C° 0 mm 3 mps 680 mmHg 26%
    12:00 +37°C° 0 mm 2 mps 679 mmHg 24%
    13:00 +38°C° 0 mm 2 mps 679 mmHg 21%
    14:00 +40°C° 0 mm 1 mps 679 mmHg 19%
    15:00 +39°C° 0 mm 2 mps 678 mmHg 19%
    16:00 +39°C° 0 mm 2 mps 678 mmHg 19%
    17:00 +38°C° 0 mm 2 mps 678 mmHg 20%
    18:00 +36°C° 0 mm 3 mps 678 mmHg 26%
    19:00 +33°C° 0 mm 4 mps 678 mmHg 33%
    20:00 +30°C° 0 mm 5 mps 678 mmHg 40%
    21:00 +29°C° 0 mm 4 mps 678 mmHg 47%
    22:00 +27°C° 0 mm 4 mps 678 mmHg 54%
    23:00 +26°C° 0 mm 4 mps 679 mmHg 61%

    31 January, Friday

    Time Temperature Precipitation Wind Pressure Humidity
    00:00 +26°C° 0 mm 4 mps 678 mmHg 62%
    01:00 +25°C° 0 mm 4 mps 678 mmHg 64%
    02:00 +25°C° 0 mm 4 mps 678 mmHg 65%
    03:00 +25°C° 0 mm 4 mps 678 mmHg 68%
    04:00 +23°C° 0 mm 4 mps 678 mmHg 71%
    05:00 +23°C° 0 mm 4 mps 678 mmHg 74%
    06:00 +23°C° 0 mm 4 mps 679 mmHg 71%
    07:00 +25°C° 0 mm 4 mps 679 mmHg 69%
    08:00 +25°C° 0 mm 4 mps 679 mmHg 66%
    09:00 +28°C° 0 mm 4 mps 680 mmHg 58%
    10:00 +30°C° 0 mm 4 mps 680 mmHg 49%
    11:00 +33°C° 0 mm 4 mps 681 mmHg 40%
    12:00 +34°C° 0 mm 4 mps 680 mmHg 36%
    13:00 +36°C° 0 mm 3 mps 680 mmHg 32%
    14:00 +37°C° 0 mm 3 mps 679 mmHg 28%
    15:00 +37°C° 0 mm 3 mps 678 mmHg 28%
    16:00 +37°C° 0 mm 3 mps 678 mmHg 27%
    17:00 +37°C° 0 mm 3 mps 677 mmHg 26%
    18:00 +34°C° 0.1 mm 3 mps 677 mmHg 34%
    19:00 +30°C° 0.1 mm 3 mps 677 mmHg 41%
    20:00 +27°C° 0.1 mm 3 mps 677 mmHg 48%
    21:00 +27°C° 0.1 mm 2 mps 677 mmHg 50%
    22:00 +26°C° 0.1 mm 1 mps 677 mmHg 52%
    23:00 +26°C° 0.1 mm 1 mps 678 mmHg 53%

    1 February, Saturday

    Time Temperature Precipitation Wind Pressure Humidity
    00:00 +25°C° 0.5 mm 1 mps 677 mmHg 60%
    01:00 +24°C° 0.5 mm 2 mps 677 mmHg 66%
    02:00 +22°C° 0.5 mm 3 mps 677 mmHg 73%
    03:00 +22°C° 0 mm 3 mps 677 mmHg 75%
    04:00 +22°C° 0 mm 3 mps 677 mmHg 77%
    05:00 +21°C° 0 mm 3 mps 677 mmHg 78%
    06:00 +24°C° 0.1 mm 2 mps 678 mmHg 70%
    07:00 +25°C° 0.1 mm 2 mps 678 mmHg 61%
    08:00 +27°C° 0.1 mm 2 mps 678 mmHg 53%
    09:00 +29°C° 0 mm 2 mps 678 mmHg 44%
    10:00 +31°C° 0 mm 3 mps 678 mmHg 36%
    11:00 +35°C° 0 mm 3 mps 679 mmHg 28%
    12:00 +36°C° 0 mm 3 mps 678 mmHg 26%
    13:00 +37°C° 0 mm 3 mps 678 mmHg 23%
    14:00 +38°C° 0 mm 3 mps 677 mmHg 21%
    15:00 +38°C° 0 mm 3 mps 677 mmHg 21%
    16:00 +37°C° 0 mm 2 mps 676 mmHg 22%
    17:00 +37°C° 0 mm 2 mps 676 mmHg 22%
    18:00 +35°C° 0 mm 3 mps 676 mmHg 27%
    19:00 +33°C° 0 mm 3 mps 676 mmHg 33%
    20:00 +29°C° 0 mm 3 mps 675 mmHg 39%
    21:00 +28°C° 0 mm 3 mps 676 mmHg 42%
    22:00 +28°C° 0 mm 2 mps 676 mmHg 44%
    23:00 +27°C° 0 mm 2 mps 676 mmHg 47%
    Show more